Location: Newark
(48.3453°N, 0.5589°E)
Time: 12:10:04
(UTC+00:00)

A-11 Canister half - Pass Details

Date: 10 December 2019
Orbit: 1517 x 1683 km, 47.2° (Epoch: 25 January)

Event Time Altitude Azimuth Distance (km) Brightness Sun altitude
Rises 18:17:37 0° 290° (WNW) 4,883 12.6 -21.3°
Reaches altitude 10° 18:20:57 10° 284° (WNW) 3,911 12.0 -21.8°
Maximum altitude 18:30:04 41° 219° (SW) 2,273 10.2 -23.3°
Drops below altitude 10° 18:39:16 10° 154° (SSE) 3,937 10.9 -24.9°
Sets 18:42:39 0° 147° (SSE) 4,917 11.4 -25.4°
